Regional Weather Roundup
Issued by NWS

Home | Current Version | Previous Version | Text Only | Print | Product List | Glossary On
Versions: 1 2 3 4 5 6 7 8 9 10 11 12 13 14 15 16 17 18 19 20 21 22 23 24 25 26 27 28 29 30 31 32 33 34 35 36 37 38 39 40 41 42 43 44 45 46 47 48 49 50
000
ASUS44 KFWD 030410
RWRTX
NORTH TEXAS HOURLY WEATHER ROUNDUP
NATIONAL WEATHER SERVICE FORT WORTH TX
1000 PM CST FRI DEC 02 2016

NOTE: "FAIR" INDICATES FEW OR NO CLOUDS BELOW 12,000 FEET WITH NO
SIGNIFICANT WEATHER AND/OR OBSTRUCTIONS TO VISIBILITY.

TXZ118-119-030500-
DALLAS/FORT WORTH METROPLEX

CITY           SKY/WX    TMP DP  RH WIND       PRES   REMARKS
DFW AIRPORT    CLOUDY    55  42  61 NE9       30.13F
DALLAS LOVE    CLOUDY    56  41  57 E7        30.14F
FTW MEACHAM    CLOUDY    56  40  55 NE9       30.13F
DAL-EXECUTIVE  CLOUDY    56  40  55 E7        30.13F
FTW-ALLIANCE   CLOUDY    52  46  80 NE6       30.15S
FTW-NAS-JRB    CLOUDY    56  41  57 NE9       30.13F
FTW-SPINKS     CLOUDY    56  39  53 E6        30.15S
ARLINGTON      CLOUDY    57  38  48 E8        30.14F
GRAND PRAIRIE  CLOUDY    56  38  49 NE8       30.15F
ADDISON        CLOUDY    55  41  58 NE6       30.16F
MESQUITE       CLOUDY    55  38  54 E5        30.16S
LANCASTER      CLOUDY    55  42  60 NE5       30.15R
$$

TXZ091>094-102>105-117-120-121-131>134-030500-
NORTH CENTRAL TEXAS

CITY           SKY/WX    TMP DP  RH WIND       PRES   REMARKS
SHRMAN/DENISON CLOUDY    50  49  98 CALM      30.20S
GAINESVILLE    RAIN      49  44  84 CALM      30.21R
BOWIE          CLOUDY    48  46  90 E3        30.17F
BRIDGEPORT     CLOUDY    49  47  93 NE5       30.17F
DECATUR        LGT RAIN  48  45  90 E7        30.16F
DENTON         LGT RAIN  50  46  86 N6        30.17R
MCKINNEY       CLOUDY    53  42  66 NE3       30.18R
BONHAM         LGT RAIN  50  43  76 E7        30.18S
GREENVILLE     CLOUDY    54  41  62 CALM      30.17F
ROCKWALL       CLOUDY    55  40  56 E7        30.16F
TERRELL        CLOUDY    56  38  50 E6        30.16S
WAXAHACHIE     CLOUDY    53  43  69 NE5       30.15S
CLEBURNE       CLOUDY    55  41  58 NE9       30.14S
GRANBURY       CLOUDY    55  43  64 CALM      30.14S
$$

TXZ083>090-098>101-113>116-127>130-139>142-154-155-030500-
WESTERN NORTH TEXAS

CITY           SKY/WX    TMP DP  RH WIND       PRES   REMARKS
WICHITA FALLS  LGT RAIN  49  46  90 NE6       30.18S
WF-KICKAPOO    CLOUDY    49  46  88 NE6       30.20R
VERNON         CLOUDY    49  43  78 E7        30.19S
ABILENE        LGT RAIN  47  47 100 E10       30.10S
ABILENE-DYESS  LGT RAIN  48  45  87 E9        30.08S FOG
CISCO          CLOUDY    48  45  87 NE8       30.10S
GRAHAM         RAIN      48  47  96 NE5       30.13S
MINERAL WELLS  CLOUDY    50  44  80 NE6       30.13S
STEPHENVILLE   CLOUDY    50  45  81 NE5       30.13F
COMANCHE       CLOUDY    50  50 100 E5        30.10F
BROWNWOOD      CLOUDY    50  46  87 NE5       30.08F
COLEMAN        DRIZZLE   50  46  86 NE8       30.09S
$$

TXZ143>147-156>162-174-175-030500-
CENTRAL TEXAS

CITY           SKY/WX    TMP DP  RH WIND       PRES   REMARKS
WACO           MOCLDY    55  41  59 E9        30.10F
WACO-TSTC      MOCLDY    54  41  62 E7        30.10F
WACO-MCGREGOR  CLOUDY    54  42  64 E13       30.10S
HILLSBORO      CLOUDY    56  42  59 E8        30.13S
CORSICANA      LGT RAIN  56  40  55 E12       30.14R
MEXIA          CLOUDY    53  42  66 E7G18     30.11S
HEARNE         CLOUDY    50  48  92 NE12      30.09S
CAMERON        RAIN      50  48  93 NE5       30.10R
TEMPLE         LGT RAIN  50  47  89 E12       30.09S
KILLEEN        LGT RAIN  50  47  89 E13       30.06S
KILLEEN-SKYLRK CLOUDY    50  46  86 E9        30.09R
FORT HOOD      CLOUDY    50  46  87 E9        30.05S
GATESVILLE     LGT RAIN  54  43  66 E7        30.10S
HAMILTON       CLOUDY    52  44  73 E6        30.11R
LAMPASAS       CLOUDY    50  48  93 NE5       30.07R
$$

TXZ095>097-106>112-122>126-135>138-148>153-164>167-030500-
EAST TEXAS

CITY           SKY/WX    TMP DP  RH WIND       PRES   REMARKS
PARIS          CLOUDY    52  39  62 E8        30.20R
MOUNT PLEASANT PTCLDY    55  37  50 E9        30.20R
GILMER         LGT RAIN  55  36  49 E9        30.18S
MINEOLA        CLOUDY    55  37  50 CALM      30.15F
TYLER          LGT RAIN  53  42  66 E12       30.15F
LONGVIEW       LGT RAIN  54  42  64 CALM      30.21R
MARSHALL       CLOUDY    53  34  49 CALM      30.21R
ATHENS         CLOUDY    52  41  66 E6        30.13F
PALESTINE      LGT RAIN  51  46  83 NE6       30.14F
JACKSONVILLE   RAIN      50  44  79 E6        30.16F
CENTER         CLOUDY    56  40  54 CALM      30.17R
NACOGDOCHES    CLOUDY    55  39  54 E3        30.18R
LUFKIN         HVY RAIN  50  45  83 NE8       30.17R
$$

SUPPLEMENTAL OBSERVATIONS (CENTRAL)

CITY           SKY/WX    TMP DP  RH WIND       PRES   REMARKS
CADDO GRASSLND   N/A     48  43  81 CALM        N/A
PAT MAYSE LAKE   N/A     52  37  58 NE3         N/A
MCGREGOR         N/A     52  41  66 E10         N/A
TEMPLE           N/A     50  46  87 NE14        N/A
$$

SUPPLEMENTAL OBSERVATIONS (WEST)

CITY           SKY/WX    TMP DP  RH WIND       PRES   REMARKS
MILLERS CREEK    N/A     48  43  81 E8          N/A
LBJ GRASSLAND    N/A     48  45  87 NE3         N/A
GRANBURY         N/A     54  41  62 NE2         N/A
HAMBY            N/A     48  45  87 E8          N/A
$$

SUPPLEMENTAL OBSERVATIONS (EAST)

CITY           SKY/WX    TMP DP  RH WIND       PRES   REMARKS
TEXARKANA        N/A     55  36  47 SE1         N/A
LINDEN           N/A     55  34  44 E2          N/A
GILMER           N/A     55  36  47 SE7         N/A
HENDERSON        N/A     48  45  87 NE3         N/A
LUFKIN           N/A     52  48  87 MISG        N/A
N SABINE NF      N/A     52  48  87 MISG        N/A
$$

SUPPLEMENTAL OBSERVATIONS ARE A COLLECTION OF AUTOMATED INSTRUMENTS
THAT ARE MAINTAINED BY A VARIETY OF FEDERAL AND STATE AGENCIES.
CERTAIN ELEMENTS...SUCH AS HUMIDITY VALUES AND SUSTAINED WIND
SPEEDS...MAY BE APPROXIMATED.





USA.gov is the U.S. government's official web portal to all federal, state and local government web resources and services.